Weather History for K0E0 - June, 2013

Change the Weather History Date:

Thursday, June 13, 2013

  Actual Average (KABQ) Record (KABQ)
Temperature  
Mean Temperature 72 °F 74 °F  
Max Temperature 92 °F 88 °F 100 °F (1956)
Min Temperature 52 °F 61 °F 37 °F (1912)
Degree Days  
Heating Degree Days 0 0  
Month to date heating degree days 0  
Since 1 June heating degree days 0  
Since 1 July heating degree days 4175  
Cooling Degree Days 7 10  
Month to date cooling degree days 102  
Year to date cooling degree days 200  
Since 1 June cooling degree days 102  
Growing Degree Days 22 (Base 50)    
Moisture  
Dew Point 37 °F    
Average Humidity 28    
Maximum Humidity 46    
Minimum Humidity 10    
Precipitation  
Precipitation 0.03 in 0.02 in 1.08 in (1973)
Month to date precipitation 0.19  
Year to date precipitation 2.73  
Snow  
Snow 0.00 in - - ()
Month to date snowfall  
Since 1 June snowfall  
Since 1 July snowfall  
Snow Depth -    
Sea Level Pressure  
Sea Level Pressure 30.21 in    
Wind  
Wind Speed 7 mph (SSE)    
Max Wind Speed 23 mph    
Max Gust Speed 29 mph    
Visibility 10 miles    
Events Thunderstorm    
T = Trace of Precipitation, MM = Missing Value Source: NWS Daily Summary

Daily Weather History Graph

Daily Weather History Graph

Search for Another Location

Airport or City:

Trip Planner

Search our weather history database for the weather conditions in past years. The results will help you decide how hot, cold, wet, or windy it might be!

Date:

Astronomy

Jun. 13, 2013 Rise Set
Actual Time 5:49 AM MDT 8:18 PM MDT
Civil Twilight 5:19 AM MDT 8:48 PM MDT
Nautical Twilight 4:43 AM MDT 9:25 PM MDT
Astronomical Twilight 4:02 AM MDT 10:05 PM MDT
Moon 10:20 AM MDT (6/13) 11:37 PM MDT (6/13)
Length of Visible Light 15h 28m
Length of Day
14h 29m
Waxing Crescent, 22% of the Moon is Illuminated
Jun 13
Waxing Crescent
Jun 16
First Quarter
Jun 23
Full
Jun 29
Last Quarter
Jul 8
New

Hourly Weather History & Observations

Time (MDT) Temp. Dew Point Humidity Pressure Visibility Wind Dir Wind Speed Gust Speed Precip Events Conditions
12:15 AM 66.6 °F 31.6 °F 27% 30.23 in 10.0 mi Calm Calm - N/A   Clear
12:35 AM 73.9 °F 34.2 °F 23% 30.23 in 10.0 mi SSE 9.2 mph - N/A   Clear
12:55 AM 69.3 °F 34.3 °F 28% 30.23 in 10.0 mi South 5.8 mph - N/A   Clear
1:15 AM 66.0 °F 34.2 °F 31% 30.24 in 10.0 mi Calm Calm - N/A   Clear
1:35 AM 68.5 °F 37.0 °F 31% 30.23 in 10.0 mi Calm Calm - N/A   Clear
1:55 AM 66.7 °F 36.9 °F 33% 30.23 in 10.0 mi Calm Calm - N/A   Clear
2:15 AM 67.3 °F 39.4 °F 36% 30.23 in 10.0 mi SSE 3.5 mph - N/A   Clear
2:35 AM 63.5 °F 33.8 °F 33% 30.22 in 10.0 mi WNW 4.6 mph - N/A   Clear
2:55 AM 68.5 °F 40.3 °F 36% 30.22 in 10.0 mi SSW 5.8 mph - N/A   Clear
3:15 AM 66.9 °F 39.4 °F 36% 30.22 in 10.0 mi SW 4.6 mph - N/A   Clear
3:35 AM 64.2 °F 35.8 °F 35% 30.23 in 10.0 mi WSW 4.6 mph - N/A   Clear
3:55 AM 59.9 °F 35.4 °F 40% 30.22 in 10.0 mi NNW 4.6 mph - N/A   Clear
4:15 AM 57.0 °F 34.0 °F 42% 30.23 in 10.0 mi NNW 6.9 mph - N/A   Clear
4:35 AM 57.4 °F 34.5 °F 42% 30.23 in 10.0 mi NW 8.1 mph - N/A   Clear
4:55 AM 55.8 °F 32.5 °F 41% 30.24 in 10.0 mi WNW 4.6 mph - N/A   Clear
5:15 AM 54.0 °F 32.4 °F 44% 30.24 in 10.0 mi NNW 3.5 mph - N/A   Clear
5:35 AM 54.0 °F 32.7 °F 45% 30.25 in 10.0 mi Calm Calm - N/A   Clear
5:55 AM 52.2 °F 32.0 °F 46% 30.25 in 10.0 mi West 3.5 mph - N/A   Clear
6:15 AM 54.1 °F 32.0 °F 43% 30.26 in 10.0 mi WNW 3.5 mph - N/A   Clear
6:35 AM 54.7 °F 32.0 °F 42% 30.26 in 10.0 mi Calm Calm - N/A   Clear
6:55 AM 58.5 °F 32.2 °F 37% 30.26 in 10.0 mi Calm Calm - N/A   Clear
7:15 AM 63.0 °F 35.6 °F 36% 30.26 in 10.0 mi NNE 3.5 mph - N/A   Clear
7:35 AM 65.3 °F 36.5 °F 34% 30.26 in 10.0 mi NNW 5.8 mph - N/A   Clear
7:55 AM 68.2 °F 40.1 °F 36% 30.26 in 10.0 mi Calm Calm - N/A   Clear
8:15 AM 70.3 °F 42.8 °F 37% 30.27 in 10.0 mi Calm Calm - N/A   Clear
8:35 AM 72.7 °F 42.6 °F 34% 30.27 in 10.0 mi Calm Calm - N/A   Clear
8:55 AM 75.2 °F 41.9 °F 30% 30.27 in 10.0 mi SSE 5.8 mph - N/A   Clear
9:15 AM 78.1 °F 41.5 °F 27% 30.26 in 10.0 mi SSE 8.1 mph - N/A   Clear
9:35 AM 80.1 °F 41.5 °F 25% 30.26 in 10.0 mi South 8.1 mph - N/A   Clear
9:55 AM 81.9 °F 42.4 °F 25% 30.26 in 10.0 mi South 10.4 mph - N/A   Clear
10:15 AM 83.1 °F 44.1 °F 25% 30.26 in 10.0 mi SSE 9.2 mph - N/A   Clear
10:35 AM 85.5 °F 40.1 °F 20% 30.26 in 10.0 mi SSE 10.4 mph 16.1 mph N/A   Clear
10:55 AM 86.7 °F 39.6 °F 19% 30.25 in 10.0 mi South 12.7 mph - N/A   Clear
11:15 AM 87.8 °F 40.3 °F 19% 30.25 in 10.0 mi SE 10.4 mph - N/A   Clear
11:35 AM 87.6 °F 37.8 °F 17% 30.25 in 10.0 mi South 9.2 mph 16.1 mph N/A   Clear
11:55 AM 88.7 °F 38.5 °F 17% 30.24 in 10.0 mi SSE 8.1 mph - N/A   Clear
12:15 PM 90.1 °F 37.9 °F 16% 30.23 in 10.0 mi SSW 8.1 mph - N/A   Clear
12:35 PM 90.7 °F 36.1 °F 15% 30.23 in 10.0 mi ESE 9.2 mph 19.6 mph N/A   Clear
12:55 PM - - N/A% - - North - - N/A   Unknown
1:15 PM 89.6 °F 36.5 °F 15% 30.20 in 10.0 mi SSE 8.1 mph 20.7 mph N/A   Clear
1:35 PM 91.4 °F 34.9 °F 14% 30.20 in - SSE 15.0 mph 19.6 mph 0.03 in   Clear
1:55 PM 91.8 °F 34.7 °F 13% 30.18 in 10.0 mi SSE 17.3 mph 28.8 mph 0.03 in   Clear
2:35 PM 92.5 °F 29.7 °F 11% 30.17 in 10.0 mi SSE 15.0 mph 26.5 mph N/A   Clear
2:55 PM 92.5 °F 29.7 °F 11% 30.16 in 10.0 mi SE 18.4 mph 26.5 mph N/A   Clear
3:15 PM - - N/A% 30.15 in - SSE 20.7 mph - N/A   Unknown
3:35 PM - - N/A% 30.15 in - SSE 13.8 mph - N/A   Unknown
3:55 PM 91.8 °F 31.8 °F 12% 30.14 in 10.0 mi ESE 17.3 mph 24.2 mph N/A   Clear
4:15 PM 91.6 °F 31.8 °F 12% 30.14 in 10.0 mi SE 13.8 mph 25.3 mph N/A   Clear
4:35 PM 91.6 °F 28.6 °F 10% 30.14 in 10.0 mi ESE 17.3 mph 23.0 mph N/A   Clear
4:55 PM 90.7 °F 32.0 °F 12% 30.13 in 10.0 mi ESE 13.8 mph 23.0 mph N/A   Clear
5:15 PM 90.1 °F 32.4 °F 13% 30.12 in 10.0 mi ESE 15.0 mph 26.5 mph N/A   Clear
5:35 PM 89.4 °F 32.7 °F 13% 30.12 in 10.0 mi SE 19.6 mph 28.8 mph N/A   Clear
5:55 PM 88.2 °F 34.5 °F 15% 30.11 in 10.0 mi SE 18.4 mph 24.2 mph N/A   Clear
6:15 PM 87.4 °F 34.2 °F 15% 30.12 in 10.0 mi SE 20.7 mph 25.3 mph N/A   Clear
6:35 PM 84.9 °F 34.3 °F 16% 30.12 in 10.0 mi SE 17.3 mph - N/A   Clear
6:55 PM 83.8 °F 36.0 °F 18% 30.13 in 10.0 mi SE 21.9 mph 28.8 mph N/A   Clear
7:15 PM 82.8 °F 37.6 °F 20% 30.14 in 10.0 mi SE 21.9 mph - N/A   Clear
7:35 PM 81.5 °F 39.4 °F 22% 30.15 in 10.0 mi SE 23.0 mph - N/A   Clear
7:55 PM 79.9 °F 39.4 °F 23% 30.15 in 10.0 mi SE 18.4 mph 26.5 mph N/A   Clear
8:15 PM 78.4 °F 39.9 °F 25% 30.15 in 10.0 mi SE 15.0 mph - N/A   Clear
8:35 PM 77.0 °F 41.0 °F 28% 30.16 in 10.0 mi SSE 12.7 mph - N/A   Clear
8:55 PM 74.8 °F 40.5 °F 29% 30.18 in 10.0 mi South 10.4 mph - N/A Thunderstorm Clear
9:15 PM 73.0 °F 40.6 °F 31% 30.19 in 10.0 mi SSW 4.6 mph - N/A   Clear
9:35 PM 72.7 °F 41.0 °F 32% 30.21 in 10.0 mi WSW 4.6 mph - N/A   Clear
9:55 PM 72.9 °F 41.4 °F 32% 30.22 in 10.0 mi Calm Calm - N/A   Clear
10:15 PM 69.4 °F 39.9 °F 34% 30.23 in 10.0 mi East 6.9 mph - N/A   Clear
10:35 PM 71.2 °F 42.3 °F 35% 30.22 in 10.0 mi SE 9.2 mph - N/A   Clear
10:55 PM 69.6 °F 41.9 °F 37% 30.22 in 10.0 mi East 6.9 mph - N/A   Clear
11:15 PM 69.8 °F 43.2 °F 38% 30.22 in 10.0 mi ESE 5.8 mph - N/A   Clear
11:35 PM 68.2 °F 43.7 °F 41% 30.22 in 10.0 mi ESE 4.6 mph - N/A   Clear
11:55 PM 65.7 °F 42.6 °F 43% 30.22 in 10.0 mi ENE 4.6 mph - N/A   Clear